{"data":{"norad_id":59807,"intl_designator":"2024-094C","name":"2024-094C","alt_names":[],"object_type":"PAYLOAD","status":"ACTIVE","operator":null,"country":"PRC","launch_date":"2024-05-20","launch_site_code":"TAISC","launch_vehicle":null,"mission":null,"orbit_class":"UNKNOWN","rcs_meters":null,"size_class":null,"mass_kg":null,"dimensions":null,"purposes":[],"wikipedia_slug":null,"has_3d_model":false,"image_url":null,"decayed_at":null,"tle_current":{"epoch":"2026-09-22T23:43:51.487104Z","epoch_age_seconds":57679,"freshness":"FRESH","line1":"1 59807U 24094C   26265.98879036  .00003922  00000+0  20195-3 0  9994","line2":"2 59807  97.3839 334.6900 0001650  51.6156 308.5226 15.16972445129980","mean_motion":15.16972445,"eccentricity":0.000165,"inclination_deg":97.3839,"raan_deg":334.69,"arg_perigee_deg":51.6156,"mean_anomaly_deg":308.5226,"bstar":0.00020195,"rev_number":12998,"period_min":94.925916732785,"perigee_km":513.85950807317,"apogee_km":516.13424225198,"semimajor_km":6893.1338751626,"source":"CELESTRAK","updated_at":"2026-09-23T09:00:19.589494Z"}}}